EW0122 Weather Reports


Display with metric or nautical units.
time (UTC)temp
F
wind
direction
speed
MPH
gust
MPH
rain 1hr
in
rain 24hr
in
rain mn
in
humidity
%
barometer
mb
20260510115514 53 146 1.0 5.0 0.00 0.46 0.00 92 1011.0
20260510115016 53 0 0.0 6.0 0.00 0.46 0.00 92 1011.0
20260510114529 53 143 2.0 6.0 0.00 0.46 0.00 92 1011.0
20260510114014 53 210 1.0 6.0 0.00 0.46 0.00 92 1011.0
20260510113511 53 135 1.0 6.0 0.00 0.46 0.00 92 1010.9
20260510113029 53 239 2.0 6.0 0.00 0.46 0.00 92 1010.8
20260510112511 52 203 1.0 6.0 0.00 0.46 0.00 93 1010.8
20260510112017 52 148 2.0 7.0 0.00 0.46 0.00 93 1010.8
20260510111530 52 175 2.0 7.0 0.00 0.46 0.00 93 1010.9
20260510111013 52 158 1.0 8.0 0.00 0.46 0.00 93 1010.9
20260510110511 52 145 1.0 8.0 0.00 0.46 0.00 93 1010.8
20260510110030 52 155 2.0 6.0 0.00 0.46 0.00 93 1010.8
20260510105513 52 169 1.0 5.0 0.00 0.46 0.00 93 1010.7
20260510105013 0 0.0 0.0 0.00 0.46 0.00 1010.8
20260510104530 0 0.0 0.0 0.00 0.46 0.00 1010.8
20260510104011 0 0.0 0.0 0.00 0.46 0.00 1010.6
20260510103513 0 0.0 0.0 0.00 0.46 0.00 1010.4
20260510103029 0 0.0 0.0 0.00 0.46 0.00 1010.1
20260510102514 0 0.0 0.0 0.00 0.46 0.00 1010.1
20260510102014 0 0.0 0.0 0.00 0.46 0.00 1010.0
20260510101531 0 0.0 0.0 0.00 0.46 0.00 1009.9
20260510101013 0 0.0 0.0 0.00 0.46 0.00 1009.7
20260510100513 0 0.0 0.0 0.00 0.46 0.00 1009.7
20260510100030 0 0.0 0.0 0.00 0.46 0.00 1009.7
20260510095519 0 0.0 0.0 0.00 0.46 0.00 1009.6
20260510095017 0 0.0 0.0 0.00 0.46 0.00 1009.6
20260510094541 0 0.0 0.0 0.00 0.46 0.00 1009.5
20260510094012 0 0.0 0.0 0.00 0.46 0.00 1009.4
20260510093511 0 0.0 0.0 0.00 0.46 0.00 1009.4
20260510093035 0 0.0 0.0 0.00 0.46 0.00 1009.4
20260510092515 0 0.0 0.0 0.00 0.46 0.00 1009.3
20260510092014 0 0.0 0.0 0.00 0.46 0.00 1009.1
20260510091539 0 0.0 0.0 0.00 0.46 0.00 1009.1
20260510091013 0 0.0 0.0 0.00 0.46 0.00 1009.0
20260510090512 0 0.0 0.0 0.00 0.46 0.00 1009.1
20260510090033 0 0.0 0.0 0.00 0.46 0.00 1009.1
20260510085512 0 0.0 0.0 0.00 0.46 0.00 1009.1
20260510085010 0 0.0 0.0 0.00 0.46 0.00 1009.1
20260510084534 0 2.0 0.0 0.00 0.46 0.00 1009.2
20260510084012 50 2.0 9.0 0.00 0.46 0.00 92 1009.1
20260510083514 50 161 3.0 9.0 0.00 0.46 0.00 92 1009.2
20260510083048 51 141 0.0 6.0 0.00 0.46 0.00 93 1009.1
20260510082513 51 122 0.0 5.0 0.00 0.46 0.00 93 1009.2
20260510082017 51 96 0.0 4.0 0.00 0.46 0.00 93 1009.0
20260510081531 51 217 2.0 6.0 0.00 0.46 0.00 93 1009.1
20260510081013 51 150 1.0 9.0 0.00 0.46 0.00 93 1009.2
20260510080512 51 159 1.0 9.0 0.00 0.46 0.00 93 1009.2
20260510080029 51 75 2.0 8.0 0.00 0.46 0.00 93 1009.3
20260510075512 51 96 2.0 8.0 0.00 0.46 0.00 92 1009.2
20260510075011 51 114 1.0 7.0 0.00 0.46 0.00 92 1009.1
20260510074532 51 219 2.0 7.0 0.00 0.46 0.00 92 1009.0
20260510074019 51 115 1.0 7.0 0.00 0.46 0.00 92 1009.2
20260510073513 51 134 0.0 6.0 0.00 0.46 0.00 92 1009.3
20260510073030 51 158 2.0 6.0 0.00 0.46 0.00 92 1009.6
20260510072516 51 199 1.0 4.0 0.00 0.46 0.00 92 1009.6
20260510072014 51 118 1.0 5.0 0.00 0.46 0.00 92 1009.7
20260510071535 52 137 0.0 6.0 0.00 0.46 0.00 92 1009.7
20260510071016 52 141 1.0 6.0 0.00 0.46 0.00 92 1009.8
20260510070513 52 152 2.0 5.0 0.00 0.46 0.00 92 1010.0
20260510070028 52 165 1.0 7.0 0.00 0.46 0.00 92 1009.9
20260510065512 52 203 0.0 7.0 0.00 0.46 0.00 92 1010.0
20260510065012 52 107 1.0 8.0 0.00 0.46 0.00 92 1010.1
20260510064530 52 169 1.0 8.0 0.00 0.46 0.00 92 1010.2
20260510064010 52 143 2.0 8.0 0.00 0.46 0.00 92 1010.1
20260510063513 52 194 0.0 3.0 0.00 0.46 0.00 91 1010.0
20260510063028 52 214 0.0 3.0 0.00 0.46 0.00 91 1010.0
20260510062514 52 212 0.0 3.0 0.00 0.46 0.00 91 1009.8
20260510062013 52 205 1.0 5.0 0.00 0.46 0.00 91 1009.9
20260510061533 52 0 1.0 5.0 0.00 0.46 0.00 91 1009.7
20260510061015 52 233 1.0 5.0 0.00 0.46 0.00 91 1009.7
20260510060512 52 148 1.0 7.0 0.00 0.46 0.00 91 1009.5
20260510060038 52 122 1.0 9.0 0.00 0.46 0.00 91 1009.4
20260510055512 52 160 1.0 9.0 0.00 0.46 0.00 91 1009.3
20260510055013 52 98 2.0 9.0 0.00 0.46 0.00 91 1009.2
20260510054537 52 225 1.0 4.0 0.00 0.46 0.00 91 1009.3
20260510054014 52 163 1.0 7.0 0.00 0.46 0.00 91 1009.3
20260510053511 52 200 2.0 8.0 0.00 0.46 0.00 91 1009.5
20260510053029 52 120 3.0 8.0 0.00 0.46 0.00 91 1009.3
20260510052516 52 211 1.0 5.0 0.00 0.46 0.00 91 1009.4
20260510052013 52 172 1.0 6.0 0.00 0.46 0.00 91 1009.5
20260510051533 52 148 1.0 6.0 0.00 0.46 0.00 91 1009.4
20260510051013 52 152 2.0 6.0 0.00 0.46 0.00 91 1009.3
20260510050513 52 118 0.0 5.0 0.00 0.46 0.00 91 1009.3
20260510050031 52 174 2.0 4.0 0.00 0.46 0.00 91 1009.4
20260510045516 52 207 0.0 4.0 0.00 0.46 0.00 91 1009.5
20260510045014 52 113 0.0 4.0 0.00 0.46 0.00 91 1009.4
20260510044530 52 141 1.0 4.0 0.00 0.46 0.00 91 1009.4
20260510044012 52 122 1.0 3.0 0.00 0.46 0.00 91 1009.5
20260510043513 52 122 0.0 3.0 0.00 0.46 0.00 91 1009.6
20260510043033 52 143 0.0 5.0 0.00 0.46 0.00 90 1009.6
20260510042515 52 136 2.0 5.0 0.00 0.46 0.00 90 1009.6
20260510042012 52 62 1.0 5.0 0.00 0.46 0.00 90 1009.5
20260510041528 52 221 1.0 5.0 0.00 0.46 0.00 90 1009.5
20260510041011 52 158 2.0 5.0 0.00 0.46 0.00 90 1009.4
20260510040511 52 203 1.0 4.0 0.00 0.46 0.00 90 1009.5
20260510040030 52 0 0.0 6.0 0.00 0.46 0.00 90 1009.5
20260510035510 52 149 0.0 6.0 0.00 0.46 0.46 90 1009.5
20260510035015 52 132 1.0 6.0 0.00 0.46 0.46 90 1009.4
20260510034528 52 121 1.0 4.0 0.00 0.46 0.46 90 1009.3
20260510034015 52 126 0.0 3.0 0.00 0.46 0.46 90 1009.4
20260510033517 52 0 0.0 4.0 0.00 0.46 0.46 90 1009.6
20260510033029 52 0 0.0 4.0 0.00 0.46 0.46 90 1009.3
20260510032512 52 135 0.0 3.0 0.00 0.46 0.46 90 1009.2
20260510032013 52 130 0.0 3.0 0.00 0.46 0.46 90 1009.2
20260510031531 52 134 1.0 3.0 0.00 0.46 0.46 90 1009.3
20260510031013 52 134 0.0 5.0 0.00 0.46 0.46 90 1009.3
20260510030521 52 152 1.0 5.0 0.00 0.46 0.46 89 1009.3
20260510030029 52 0 0.0 5.0 0.00 0.46 0.46 89 1009.3
20260510025515 53 0 1.0 5.0 0.00 0.46 0.46 89 1009.3
20260510025012 53 129 2.0 4.0 0.00 0.46 0.46 89 1009.2
20260510024530 53 134 0.0 3.0 0.00 0.46 0.46 89 1009.3
20260510024014 53 143 0.0 4.0 0.00 0.46 0.46 89 1009.5
20260510023513 53 0 0.0 6.0 0.00 0.46 0.46 89 1009.4
20260510023028 53 141 1.0 6.0 0.00 0.46 0.46 89 1009.5
20260510022513 53 121 1.0 7.0 0.00 0.46 0.46 89 1009.4
20260510022013 53 146 3.0 7.0 0.00 0.46 0.46 89 1009.4
20260510021528 53 141 1.0 5.0 0.00 0.46 0.46 89 1009.4
20260510021013 53 136 1.0 5.0 0.00 0.46 0.46 90 1009.4
20260510020515 53 152 1.0 5.0 0.00 0.46 0.46 90 1009.5
20260510020028 53 148 0.0 2.0 0.00 0.46 0.46 90 1009.5
20260510015514 53 146 0.0 2.0 0.00 0.46 0.46 90 1009.6
20260510015011 53 0 0.0 2.0 0.00 0.46 0.46 90 1009.7
20260510014535 53 134 0.0 3.0 0.00 0.46 0.46 90 1009.5
20260510014013 53 0 0.0 3.0 0.00 0.46 0.46 90 1009.4
20260510013511 53 134 0.0 4.0 0.00 0.46 0.46 90 1009.2
20260510013028 53 0 0.0 4.0 0.00 0.46 0.46 90 1009.3
20260510012510 53 135 1.0 4.0 0.00 0.46 0.46 90 1009.3
20260510012012 53 139 1.0 4.0 0.00 0.46 0.46 90 1009.5
20260510011531 53 141 0.0 5.0 0.00 0.46 0.46 90 1009.4
20260510011013 53 127 2.0 5.0 0.00 0.46 0.46 90 1009.5
20260510010511 53 127 1.0 3.0 0.00 0.46 0.46 90 1009.5
20260510010030 53 132 0.0 3.0 0.00 0.46 0.46 90 1009.5
20260510005512 53 0 0.0 3.0 0.00 0.46 0.46 90 1009.4
20260510005013 53 148 0.0 3.0 0.00 0.46 0.46 90 1009.4
20260510004529 53 129 0.0 4.0 0.00 0.46 0.46 90 1009.3
20260510004010 53 129 1.0 4.0 0.00 0.46 0.46 91 1009.2
20260510003513 53 124 0.0 1.0 0.00 0.46 0.46 91 1009.3
20260510003038 53 0 0.0 3.0 0.00 0.46 0.46 91 1009.4
20260510002510 53 0 0.0 3.0 0.00 0.46 0.46 91 1009.3
20260510002010 53 162 0.0 2.0 0.00 0.46 0.46 90 1009.1
20260510001530 53 0 0.0 3.0 0.00 0.46 0.46 90 1009.0
20260510001011 53 0 0.0 3.0 0.00 0.46 0.46 90 1008.7
20260510000510 53 0 0.0 4.0 0.00 0.46 0.46 90 1008.8
20260510000030 53 129 0.0 4.0 0.00 0.46 0.46 90 1008.6
20260509235512 53 104 1.0 4.0 0.00 0.46 0.46 90 1008.6
20260509235013 53 0 1.0 4.0 0.00 0.46 0.46 90 1008.7
20260509234538 53 0 0.0 3.0 0.00 0.46 0.46 90 1008.6
20260509234011 53 156 1.0 5.0 0.00 0.46 0.46 90 1008.6
20260509233513 53 149 1.0 5.0 0.00 0.46 0.46 90 1008.5
20260509233032 53 159 1.0 6.0 0.00 0.46 0.46 90 1008.5
20260509232512 53 203 2.0 6.0 0.00 0.46 0.46 90 1008.3
20260509232014 54 134 0.0 6.0 0.00 0.46 0.46 90 1008.2
20260509231535 54 337 0.0 6.0 0.00 0.46 0.46 90 1008.1
20260509231014 54 136 1.0 6.0 0.00 0.46 0.46 90 1008.0
20260509230511 54 231 1.0 4.0 0.00 0.46 0.46 90 1008.1
20260509230031 54 0 1.0 5.0 0.00 0.46 0.46 90 1008.0
20260509225514 54 0 0.0 7.0 0.00 0.46 0.46 90 1008.2
20260509225011 54 170 1.0 8.0 0.00 0.46 0.46 91 1008.3
20260509224533 54 143 3.0 8.0 0.00 0.46 0.46 91 1008.2
20260509224012 54 148 2.0 8.0 0.00 0.46 0.46 91 1008.2
20260509223513 54 155 2.0 8.0 0.00 0.46 0.46 92 1008.4
20260509223031 54 166 1.0 7.0 0.00 0.46 0.46 92 1008.3
20260509222511 54 115 1.0 5.0 0.00 0.46 0.46 92 1008.3
20260509222010 54 139 1.0 4.0 0.00 0.46 0.46 92 1008.3
20260509221530 54 169 1.0 6.0 0.00 0.46 0.46 93 1008.3
20260509221012 54 156 2.0 6.0 0.00 0.46 0.46 92 1008.3
20260509220511 54 162 0.0 8.0 0.00 0.46 0.46 93 1008.3
20260509220030 54 146 1.0 8.0 0.00 0.46 0.46 93 1008.3
20260509215516 54 212 1.0 4.0 0.00 0.46 0.46 93 1008.4
20260509215013 54 181 1.0 4.0 0.00 0.46 0.46 93 1008.5
20260509214527 54 121 1.0 4.0 0.00 0.46 0.46 93 1008.5
20260509214014 54 211 1.0 3.0 0.00 0.46 0.46 94 1008.6
20260509213511 54 147 0.0 4.0 0.00 0.46 0.46 94 1008.6
20260509213030 54 61 1.0 4.0 0.00 0.46 0.46 94 1008.7
20260509212511 53 132 1.0 5.0 0.00 0.46 0.46 94 1008.6
20260509212014 53 155 1.0 5.0 0.00 0.46 0.46 94 1008.6
20260509211528 53 200 1.0 5.0 0.00 0.46 0.46 94 1008.6
20260509211011 54 0 0.0 3.0 0.00 0.46 0.46 94 1008.5
20260509210512 53 0 1.0 7.0 0.00 0.46 0.46 94 1008.5
20260509210030 53 141 1.0 7.0 0.00 0.46 0.46 94 1008.6
20260509205512 53 115 1.0 6.0 0.00 0.46 0.46 94 1008.7
20260509205011 53 115 1.0 10.0 0.00 0.46 0.46 94 1008.8
20260509204530 53 155 0.0 10.0 0.00 0.46 0.46 94 1008.9
20260509204011 53 134 2.0 7.0 0.00 0.46 0.46 94 1008.9
20260509203511 53 153 1.0 5.0 0.00 0.46 0.46 94 1008.9
20260509203037 53 127 1.0 3.0 0.00 0.46 0.46 94 1009.0
20260509202512 53 0 0.0 3.0 0.00 0.46 0.46 94 1009.0
20260509202015 52 160 1.0 3.0 0.00 0.46 0.46 94 1009.1
20260509201530 52 93 1.0 3.0 0.00 0.46 0.46 94 1009.1
20260509201017 52 246 1.0 4.0 0.00 0.46 0.46 94 1009.2
20260509200513 52 136 0.0 4.0 0.01 0.46 0.46 94 1009.3
20260509200029 52 0 1.0 4.0 0.01 0.46 0.46 94 1009.3
20260509195513 52 0 0.0 2.0 0.02 0.46 0.46 94 1009.5
20260509195011 51 137 0.0 3.0 0.02 0.46 0.46 94 1009.4
20260509194531 51 0 0.0 3.0 0.03 0.46 0.46 94 1009.6
20260509194012 51 0 0.0 4.0 0.03 0.46 0.46 94 1009.6
20260509193515 51 0 0.0 4.0 0.03 0.46 0.46 94 1009.7
20260509193037 51 115 1.0 4.0 0.04 0.46 0.46 94 1009.8
20260509192514 51 0 0.0 1.0 0.04 0.46 0.46 94 1009.8
20260509192015 51 0 0.0 3.0 0.04 0.46 0.46 94 1009.9
20260509191528 51 0 0.0 3.0 0.04 0.46 0.46 94 1009.8
20260509191016 51 125 0.0 7.0 0.03 0.45 0.45 94 1009.9
20260509190513 50 0 2.0 7.0 0.04 0.45 0.45 94 1010.0
20260509190029 51 167 0.0 3.0 0.04 0.45 0.45 94 1010.1
20260509185512 51 148 0.0 2.0 0.03 0.44 0.44 94 1010.2
20260509185011 50 0 0.0 2.0 0.03 0.44 0.44 94 1010.2
20260509184813 50 141 0.0 3.0 0.02 0.43 0.43 94 1010.2
20260509184015 50 0 0.0 3.0 0.02 0.43 0.43 94 1010.2
20260509183513 50 134 0.0 2.0 0.03 0.43 0.43 94 1010.2
20260509183032 50 0 0.0 2.0 0.02 0.42 0.42 94 1010.2
20260509182930 50 125 0.0 1.0 0.02 0.42 0.42 94 1010.2
20260509182743 50 125 0.0 1.0 0.02 0.42 0.42 94 1010.2
20260509182712 50 125 0.0 1.0 0.02 0.42 0.42 94 1010.2
20260509182613 50 125 0.0 1.0 0.02 0.42 0.42 94 1010.2
20260509182514 50 125 0.0 1.0 0.02 0.42 0.42 94 1010.2
20260509182013 50 0 0.0 3.0 0.03 0.42 0.42 94 1010.2
20260509181529 49 0 0.0 3.0 0.03 0.42 0.42 94 1010.2
20260509181049 49 127 0.0 2.0 0.02 0.41 0.41 94 1010.2
20260509180828 49 145 0.0 2.0 0.02 0.41 0.41 94 1010.3
20260509180028 49 141 0.0 2.0 0.03 0.41 0.41 94 1010.4
20260509175512 49 146 0.0 2.0 0.03 0.41 0.41 94 1010.3
20260509175013 49 135 0.0 2.0 0.03 0.41 0.41 94 1010.2
20260509174531 49 0 0.0 2.0 0.03 0.41 0.41 94 1010.4
20260509174014 49 0 0.0 2.0 0.02 0.40 0.40 94 1010.4
20260509173512 49 122 0.0 3.0 0.03 0.40 0.40 94 1010.5
20260509173029 48 129 0.0 3.0 0.03 0.40 0.40 94 1010.5
20260509172511 48 155 0.0 4.0 0.03 0.40 0.40 94 1010.6
20260509172405 48 133 2.0 4.0 0.02 0.39 0.39 93 1010.6
20260509172216 48 133 2.0 4.0 0.02 0.39 0.39 93 1010.6
20260509172045 48 133 2.0 4.0 0.02 0.39 0.39 93 1010.6
20260509172013 48 133 2.0 4.0 0.02 0.39 0.39 93 1010.6
20260509171531 48 142 0.0 2.0 0.02 0.39 0.39 93 1010.7
20260509171019 48 0 0.0 2.0 0.03 0.39 0.39 94 1010.7
20260509170514 48 242 0.0 1.0 0.03 0.39 0.39 94 1010.7
20260509170037 48 0 0.0 4.0 0.03 0.38 0.38 94 1010.7
20260509165513 48 155 1.0 4.0 0.03 0.38 0.38 93 1010.7
20260509165016 48 0 0.0 4.0 0.03 0.38 0.38 93 1010.7
20260509164536 48 119 0.0 2.0 0.04 0.38 0.38 94 1010.7
20260509164018 48 0 0.0 2.0 0.04 0.38 0.38 94 1010.9
20260509163514 48 0 0.0 3.0 0.03 0.37 0.37 94 1010.9
20260509163033 48 0 0.0 3.0 0.04 0.37 0.37 93 1011.0
20260509162516 48 141 0.0 2.0 0.04 0.37 0.37 93 1011.0
20260509162020 48 139 0.0 2.0 0.05 0.37 0.37 93 1011.2
20260509161648 48 0 0.0 2.0 0.05 0.37 0.37 93 1011.3
20260509161617 48 0 0.0 2.0 0.05 0.37 0.37 93 1011.3
20260509161534 48 0 0.0 2.0 0.05 0.37 0.37 93 1011.3
20260509161012 48 0 0.0 2.0 0.05 0.36 0.36 94 1011.4
20260509160513 47 0 0.0 2.0 0.06 0.36 0.36 93 1011.4
20260509160248 48 136 0.0 2.0 0.05 0.35 0.35 94 1011.5
20260509155552 47 134 0.0 1.0 0.06 0.35 0.35 93 1011.5
20260509154534 47 0 0.0 3.0 0.07 0.34 0.34 94 1011.8
20260509154012 47 0 0.0 3.0 0.08 0.34 0.34 94 1011.9
20260509153514 47 139 0.0 1.0 0.08 0.34 0.34 94 1011.9
20260509153235 47 0 0.0 3.0 0.08 0.33 0.33 94 1012.1
20260509153038 47 0 0.0 3.0 0.08 0.33 0.33 94 1012.1
20260509152619 46 0 0.0 3.0 0.09 0.33 0.33 93 1012.1
20260509152543 46 0 0.0 3.0 0.09 0.33 0.33 93 1012.1
20260509152512 46 0 0.0 3.0 0.09 0.33 0.33 93 1012.1
20260509152013 46 124 0.0 3.0 0.09 0.32 0.32 93 1012.3
20260509151530 46 0 0.0 1.0 0.09 0.31 0.31 93 1012.2
20260509151012 46 0 0.0 1.0 0.10 0.31 0.31 93 1012.3
20260509150514 46 207 0.0 5.0 0.10 0.30 0.30 93 1012.4
20260509150031 46 0 2.0 5.0 0.11 0.30 0.30 93 1012.3
20260509145512 46 122 1.0 3.0 0.11 0.29 0.29 93 1012.2
20260509145033 46 144 0.0 2.0 0.11 0.28 0.28 93 1012.3
20260509144532 46 0 0.0 2.0 0.11 0.27 0.27 93 1012.2
20260509144013 46 0 0.0 1.0 0.11 0.26 0.26 93 1012.3
20260509143512 46 0 0.0 1.0 0.11 0.25 0.25 93 1012.2
20260509143031 46 116 0.0 1.0 0.12 0.25 0.25 93 1012.1
20260509142514 46 122 0.0 2.0 0.12 0.24 0.24 93 1012.2
20260509142011 46 0 0.0 2.0 0.12 0.23 0.23 93 1012.1
20260509141531 46 0 0.0 1.0 0.11 0.22 0.22 93 1012.1
20260509141015 46 0 0.0 1.0 0.11 0.21 0.21 93 1012.1
20260509140512 46 134 0.0 1.0 0.10 0.20 0.20 93 1012.1
20260509140032 46 0 0.0 1.0 0.09 0.19 0.19 93 1012.0
20260509135515 45 0 0.0 1.0 0.08 0.18 0.18 93 1012.1
20260509135010 45 0 0.0 1.0 0.07 0.17 0.17 93 1012.0
20260509134531 45 0 0.0 1.0 0.07 0.16 0.16 93 1012.0
20260509134015 45 0 0.0 3.0 0.07 0.15 0.15 93 1012.0
20260509133510 45 0 0.0 3.0 0.06 0.14 0.14 92 1011.9
20260509133029 45 134 0.0 3.0 0.06 0.13 0.13 92 1011.9
20260509132511 45 0 0.0 1.0 0.06 0.12 0.12 92 1012.0
20260509132014 45 0 0.0 1.0 0.06 0.11 0.11 92 1011.9
20260509131534 45 0 0.0 0.0 0.07 0.11 0.11 92 1011.9
20260509131016 45 0 0.0 0.0 0.06 0.10 0.10 92 1011.8
20260509130510 45 0 0.0 1.0 0.07 0.10 0.10 92 1011.9
20260509130028 45 0 0.0 2.0 0.08 0.10 0.10 92 1012.0
20260509125513 45 0 0.0 2.0 0.08 0.10 0.10 92 1012.0
20260509125012 45 122 0.0 1.0 0.09 0.10 0.10 92 1012.1
20260509124530 45 0 0.0 1.0 0.08 0.09 0.09 92 1012.3
20260509124015 45 102 0.0 1.0 0.07 0.08 0.08 92 1012.1
20260509123511 45 0 0.0 1.0 0.06 0.07 0.07 91 1012.3
20260509123029 44 0 0.0 2.0 0.06 0.07 0.07 91 1012.4
20260509122510 44 197 0.0 2.0 0.05 0.06 0.06 91 1012.2
20260509122010 44 127 0.0 1.0 0.04 0.05 0.05 91 1012.2
20260509121531 44 0 0.0 1.0 0.03 0.04 0.04 91 1012.3
20260509121013 44 0 0.0 1.0 0.03 0.04 0.04 91 1012.2
20260509120513 44 217 0.0 1.0 0.03 0.03 0.03 90 1012.4
20260509120036 44 0 0.0 1.0 0.02 0.02 0.02 90 1012.4